Temp
28 26 24 25 25 25 25 25 24 26 32 31 32 31 30 28 28 25 26 24 23 22 22 22 22 22 21 22 22 22 22 21 21 21 21 22 22 21 21 21 21 22 22 21 22 22 22 22 23
28 26 26 26 26 25 25 23 23 26 32 31 31 32 30 28 29 27 25 24 24 23 22 22 22 22 21 22 22 22 22 22 22 21 21 22 21 21 21 21 21 21 21 21 22 22 22 22 22
27 27 25 26 27 27 25 23 24 27 28 32 32 32 31 28 29 27 25 24 24 22 23 22 22 22 22 21 22 22 22 22 21 21 21 21 21 21 21 21 21 21 21 21 21 21 21 22 22
27 27 25 26 29 29 25 23 23 26 32 33 32 29 30 29 28 26 26 25 24 23 23 22 23 22 21 21 22 22 21 21 21 21 21 21 21 21 21 21 21 21 21 21 21 21 21 21 21
28 24 26 28 30 30 28 26 26 29 31 31 30 29 28 28 28 28 26 25 24 23 23 23 23 23 22 22 21 21 21 21 21 21 21 21 21 21 21 21 21 21 21 21 21 21 21 22 22
27 26 27 27 29 32 31 32 32 30 31 32 31 29 27 27 27 27 27 25 25 24 22 23 23 22 22 21 21 21 21 21 22 21 21 21 21 21 21 21 21 21 21 21 21 21 22 22 22
30 29 28 28 29 31 31 34 31 29 29 28 27 27 27 28 28 28 27 25 24 23 22 23 23 22 22 21 21 21 21 21 21 21 22 21 22 22 21 21 21 21 21 21 21 21 22 23 22
32 27 27 24 25 29 32 34 31 29 27 29 28 29 26 28 28 28 26 26 24 23 23 22 22 22 22 22 21 21 21 21 22 23 23 22 22 22 21 22 21 21 21 21 21 21 22 22 23
35 26 25 25 25 30 32 31 30 28 28 29 29 31 29 28 28 28 27 26 24 23 23 23 23 23 22 22 22 21 21 21 22 22 22 22 22 23 22 23 22 22 22 21 21 22 22 22 23
31 29 28 27 27 31 32 31 28 29 27 27 28 29 30 29 28 28 26 25 25 25 24 24 23 23 22 22 22 22 22 22 23 23 23 23 23 22 23 23 23 23 23 23 23 22 22 22 23
34 30 32 30 32 32 32 31 31 26 25 24 27 28 30 29 29 28 27 26 26 26 25 24 23 23 23 22 23 22 22 22 23 24 23 23 23 24 23 23 24 24 23 23 23 23 23 22 23
33 34 34 33 32 32 31 31 30 28 27 28 27 28 30 29 29 28 28 27 26 26 25 25 24 23 23 23 22 22 22 22 23 24 24 23 24 24 25 24 24 24 24 24 23 23 23 23 23
34 34 36 34 32 32 32 30 30 28 28 29 28 28 28 28 28 29 29 27 27 26 24 24 24 24 24 23 23 23 23 23 24 24 24 24 25 25 25 24 25 24 24 25 24 24 23 23 23
35 35 35 35 32 33 32 30 30 29 28 29 29 29 29 29 29 28 28 26 26 26 25 24 24 24 24 23 23 23 23 23 23 25 25 25 25 25 25 24 24 25 24 25 24 25 24 23 23
36 33 34 32 33 33 31 29 30 28 29 29 30 30 31 29 29 27 28 28 27 26 26 25 24 23 23 23 24 23 23 24 24 25 25 25 25 25 24 25 25 25 25 24 25 24 24 24 24
33 34 31 32 32 33 31 28 28 27 27 28 30 32 31 29 29 28 28 27 27 26 25 25 24 23 23 23 23 23 24 24 25 25 25 26 25 25 25 25 25 25 24 24 24 24 25 25 25
31 29 31 32 32 32 30 28 26 25 27 28 31 31 29 29 29 29 28 27 27 26 26 25 24 24 23 23 23 23 24 24 25 25 25 26 25 25 25 26 26 25 25 25 24 24 24 25 25
32 32 32 31 32 33 31 29 26 25 27 29 30 31 29 29 28 29 28 28 27 26 26 25 24 24 24 23 23 23 24 25 26 25 25 26 25 25 25 25 25 25 24 23 25 25 24 25 25
34 33 32 33 34 32 30 29 25 25 26 27 29 29 31 28 28 28 28 27 27 26 25 25 24 24 23 23 23 23 24 25 25 26 25 26 25 26 25 25 25 25 24 23 25 25 25 25 24
34 32 31 32 34 32 30 27 28 27 24 21 24 29 31 31 28 29 29 27 26 26 26 25 25 24 24 24 24 24 24 26 26 26 26 26 26 26 26 25 25 25 25 25 25 26 25 25 23
33 32 32 33 33 31 30 26 26 24 24 24 25 25 31 31 29 28 29 27 26 25 25 25 25 24 24 24 24 24 24 24 25 26 26 26 26 26 26 26 26 26 26 25 25 25 25 24 23
30 36 36 35 31 27 27 25 27 25 24 24 25 25 28 31 30 29 29 28 25 25 25 25 25 24 24 24 24 24 24 24 25 26 26 26 26 26 26 26 26 26 25 25 25 25 25 25 24
33 35 34 32 29 28 28 26 29 27 26 25 25 27 29 31 31 30 30 28 26 25 24 25 24 24 24 25 24 24 25 25 26 26 26 25 26 26 26 25 25 25 25 25 25 25 25 25 24
36 35 32 26 24 23 27 27 27 25 26 25 29 29 29 30 31 30 31 28 27 25 24 24 24 25 24 24 24 24 25 25 25 26 26 25 26 26 26 25 25 25 25 25 25 25 25 24 24
35 32 27 27 23 24 26 27 28 29 29 28 28 28 29 29 31 30 29 29 27 26 25 24 23 23 24 24 24 24 25 25 25 25 25 25 25 26 26 26 26 25 25 25 25 24 25 25 25
33 30 28 27 24 25 25 26 29 32 31 30 29 30 30 29 31 31 30 29 29 27 25 24 23 23 24 24 24 24 24 24 25 25 25 25 25 26 27 26 25 25 25 25 25 24 25 25 25
32 30 32 31 31 30 28 31 28 27 24 32 35 34 32 29 31 30 30 29 29 27 24 24 23 23 24 24 24 24 24 24 24 25 25 25 26 26 26 26 27 25 25 25 25 25 25 25 25
32 33 29 27 29 30 29 28 24 28 29 32 32 32 31 30 30 30 29 29 29 29 26 25 24 24 24 24 24 24 24 24 24 25 25 25 26 26 25 26 26 25 25 24 25 25 25 25 25
32 31 31 29 28 28 28 28 29 27 30 31 30 32 31 30 30 30 29 29 29 29 28 26 25 24 24 24 24 24 24 24 24 25 25 25 25 25 25 25 25 25 25 25 25 24 24 24 24
34 33 31 29 28 29 28 29 32 28 28 27 26 32 31 30 29 30 29 29 28 28 28 26 26 25 25 25 24 24 24 24 24 24 25 25 25 25 25 25 25 25 24 24 24 24 24 24 24
Height
772 772 774 777 800 799 814 814 806 792 768 756 754 764 775 775 786 813 791 796 802 807 810 813 815 818 820 820 822 823 824 827 828 829 830 830 831 834 836 838 839 839 840 841 842 842 843 845 846
769 770 774 773 803 823 819 819 811 787 759 754 760 763 774 790 775 785 793 799 801 806 809 814 816 818 820 821 823 825 826 827 828 830 831 832 833 835 838 839 839 840 840 841 843 842 845 846 847
769 770 778 790 798 813 819 814 805 783 772 754 764 760 771 787 781 786 795 797 801 807 810 813 815 817 820 822 825 826 827 828 830 831 832 833 834 835 837 838 839 839 839 841 842 843 845 846 848
769 768 777 799 800 792 802 807 795 786 767 752 758 778 775 775 781 788 795 798 803 808 811 813 814 818 821 823 824 827 828 829 830 832 834 834 834 835 836 838 839 839 840 842 842 844 844 846 847
773 781 800 802 790 784 785 785 784 781 773 771 761 782 782 781 783 789 795 799 802 808 812 813 814 817 820 822 825 826 828 829 830 832 834 834 835 835 837 839 840 840 841 841 842 843 844 845 847
780 779 808 813 796 775 771 767 768 768 769 770 771 778 785 783 786 792 796 800 804 808 812 813 815 819 820 824 826 827 828 829 830 832 833 835 835 836 839 840 840 840 841 841 842 844 844 845 848
779 788 806 806 798 784 777 757 770 776 778 781 779 790 786 784 786 791 796 799 804 808 812 813 815 819 821 824 826 827 827 828 830 831 833 835 835 837 839 841 841 841 841 842 843 845 845 845 848
763 784 806 820 818 797 768 761 761 771 780 770 773 786 795 783 786 792 797 802 806 810 813 814 815 818 821 824 826 826 827 829 830 831 833 835 835 837 839 840 841 841 840 841 842 844 846 846 849
750 800 816 813 810 787 766 771 768 772 774 772 775 770 776 783 786 793 799 802 806 810 811 814 815 817 821 823 824 826 828 830 831 832 834 835 836 837 839 840 841 840 839 840 840 842 844 845 847
768 793 796 784 784 777 768 771 775 780 784 785 778 774 778 783 787 793 799 802 806 809 811 813 817 818 820 822 823 825 828 830 831 832 834 835 836 837 839 839 840 839 838 836 836 838 842 843 846
758 784 768 772 764 762 766 772 768 787 800 795 791 785 781 782 786 789 796 801 803 806 809 817 817 821 820 821 823 826 828 830 830 832 833 834 834 837 838 838 837 838 837 836 835 836 838 841 844
770 757 758 761 761 763 771 768 775 779 780 777 779 777 778 783 786 791 796 799 803 804 807 814 817 820 819 821 823 826 828 830 830 831 833 834 835 835 835 836 836 836 836 835 835 836 837 837 840
761 758 750 753 757 759 761 772 776 777 773 770 774 777 780 781 785 789 793 797 799 802 807 811 815 817 818 820 823 826 827 829 829 829 832 834 833 834 834 834 835 836 835 834 836 836 837 838 838
750 752 752 749 757 756 765 771 770 773 770 771 773 774 775 776 780 785 789 795 799 802 806 810 812 815 816 820 822 825 827 828 829 830 832 833 834 834 834 833 834 835 836 837 836 837 836 837 840
747 765 757 758 755 759 760 781 779 768 766 768 766 765 766 773 779 784 787 791 797 801 804 808 811 814 817 820 822 824 826 827 829 829 831 832 835 834 832 831 832 833 834 837 837 837 836 835 837
762 762 786 761 756 753 763 796 776 765 769 768 764 759 765 771 775 781 785 788 794 799 802 806 809 813 817 818 820 823 825 826 828 828 831 831 834 834 833 831 831 833 834 835 836 837 837 836 836
771 795 783 769 754 756 767 783 771 764 768 769 760 758 766 770 775 778 783 787 790 795 799 804 808 811 815 817 820 822 823 824 826 828 831 832 834 833 833 833 833 835 835 834 833 836 837 835 836
785 780 773 775 760 752 764 771 768 766 767 765 763 760 764 768 769 773 778 783 788 793 797 801 806 809 812 816 818 821 822 823 825 828 829 831 832 832 833 834 835 837 837 836 835 833 834 833 834
758 768 774 761 746 757 767 773 783 782 778 772 764 764 761 767 767 771 776 782 786 791 795 799 803 807 810 814 817 819 820 822 824 827 828 829 829 829 831 834 836 836 837 837 837 834 833 832 834
757 771 774 761 742 754 766 782 771 762 779 787 780 762 759 758 765 769 773 778 782 786 792 797 800 804 808 811 814 817 819 821 823 824 827 828 827 829 830 833 836 837 835 836 836 835 833 834 836
760 770 766 763 749 751 764 788 778 776 771 772 765 764 752 754 760 763 768 773 779 783 789 794 797 801 806 810 813 816 818 821 822 824 825 827 828 829 830 832 835 835 834 835 836 835 834 833 834
780 739 742 748 769 804 780 815 781 780 779 777 758 762 750 745 750 755 762 768 773 779 785 790 794 799 803 808 811 814 817 818 819 820 822 825 828 830 830 833 835 834 832 833 833 835 835 834 833
760 736 750 759 781 790 788 802 776 771 779 772 754 751 741 741 742 749 753 761 769 774 783 786 792 796 800 803 808 811 814 816 817 818 821 824 827 829 830 831 834 833 832 832 831 833 835 835 835
729 742 757 781 797 823 787 798 787 783 768 756 729 732 736 738 737 744 748 758 765 772 780 784 788 791 797 801 805 808 810 813 815 817 819 822 825 827 827 827 830 831 832 831 832 831 832 835 834
737 761 814 820 830 824 781 791 771 749 738 739 732 729 726 731 732 739 747 754 763 769 776 780 785 789 794 798 802 805 808 811 814 816 817 821 823 823 822 823 825 829 830 830 830 831 830 832 831
750 763 799 829 832 811 781 799 765 724 726 727 725 713 717 725 727 735 741 748 756 764 771 776 781 786 791 795 798 802 805 808 811 814 816 818 821 821 820 820 821 824 828 828 827 829 829 830 829
753 770 744 770 759 781 780 757 751 743 750 721 711 708 713 722 725 733 740 747 753 761 766 771 777 783 787 791 795 799 803 806 808 811 813 816 818 817 816 816 816 818 822 824 825 826 826 827 827
737 729 775 778 798 795 781 783 796 757 740 723 719 718 716 719 727 733 739 746 751 756 762 768 773 778 783 788 792 796 800 804 807 809 811 813 814 815 816 816 815 816 818 820 821 823 824 825 825
744 754 748 757 771 795 797 774 728 738 725 724 724 720 721 721 726 732 739 745 750 755 760 765 770 775 780 784 788 793 796 799 803 806 808 810 811 813 813 815 815 815 815 816 818 820 821 821 822
720 736 745 776 784 766 771 763 710 727 723 728 735 719 719 721 726 731 737 742 748 754 758 761 766 772 777 782 786 789 793 795 798 801 804 806 808 809 811 813 814 814 814 815 816 816 817 817 818
Wind_Speed
10 10 6 5 3 3 3 7 8 15 4 20 19 11 8 4 4 4 27 33 28 25 24 21 20 18 16 18 17 17 16 17 16 16 14 13 12 11 10 9 9 8 8 8 9 9 9 8 6
8 10 8 3 2 3 2 5 16 16 3 19 18 17 15 12 12 14 26 34 30 28 23 21 20 18 16 17 15 15 16 15 13 12 12 11 11 10 9 9 9 9 9 9 9 9 9 8 7
9 7 2 1 2 2 3 3 14 21 20 16 11 9 6 10 14 10 34 34 29 27 25 23 20 18 16 15 14 14 14 13 13 11 10 10 10 10 9 10 10 9 9 10 9 9 9 8 8
6 4 4 4 2 4 9 8 20 15 15 15 16 10 8 19 16 23 36 30 31 28 24 23 21 18 15 14 13 12 11 11 10 10 10 10 10 10 10 9 10 9 8 10 9 8 8 8 7
7 3 3 2 2 5 10 18 16 12 12 4 11 8 8 13 28 36 32 33 35 28 25 23 20 16 14 13 12 12 11 11 10 9 10 10 9 10 10 9 8 9 9 10 9 9 9 8 7
3 4 3 6 5 3 4 7 4 10 9 14 18 12 5 32 34 26 28 31 26 25 25 22 19 16 15 12 11 11 11 11 10 10 10 9 8 10 9 9 10 10 9 9 8 8 8 7 6
4 1 3 3 6 3 4 3 6 9 5 6 1 8 6 22 34 29 34 33 25 24 24 24 21 17 15 12 10 10 9 10 10 10 9 7 8 9 9 9 9 9 7 6 6 6 6 5 5
3 4 4 9 12 5 4 5 11 7 1 2 8 4 10 13 29 31 35 29 32 25 22 22 21 19 15 12 10 9 9 9 10 9 7 7 6 7 8 8 8 8 7 7 6 5 4 3 2
4 4 3 7 4 5 4 3 7 4 4 4 6 9 19 28 31 29 25 27 28 26 22 21 18 16 14 13 11 10 9 10 11 8 6 6 6 5 4 6 6 6 6 5 5 4 4 4 4
4 3 8 9 8 2 2 3 3 4 8 11 13 23 29 29 27 24 20 23 23 25 23 19 18 18 18 12 11 11 10 10 10 6 6 5 5 9 7 5 8 5 6 5 5 5 2 4 2
3 4 5 7 4 4 2 6 2 13 2 8 8 2 14 24 22 18 28 25 27 23 24 22 18 17 19 17 10 10 9 7 7 7 6 3 7 9 14 8 4 6 7 7 5 1 3 1 3
2 4 5 5 5 1 3 6 5 5 7 12 14 13 4 16 13 15 18 18 26 24 21 17 18 21 19 14 11 11 12 9 5 7 7 3 3 4 9 11 5 9 10 4 4 2 2 2 0
5 3 3 8 8 4 9 4 4 3 8 13 15 11 11 8 17 21 18 22 26 21 22 22 23 22 16 14 12 14 12 12 7 6 7 2 2 2 3 3 3 3 11 3 6 3 2 0 0
2 5 8 6 9 3 5 7 8 5 5 9 7 12 16 16 18 18 19 22 24 23 23 24 20 17 14 14 14 16 13 12 11 6 7 3 0 2 1 2 4 6 8 9 7 3 3 2 3
3 6 1 3 3 4 10 2 4 7 10 12 12 16 20 15 21 18 22 27 28 24 27 26 18 16 14 15 15 15 14 14 9 15 8 8 3 3 1 4 5 3 0 1 3 2 3 2 3
8 4 3 4 2 5 8 4 5 7 5 13 13 10 16 15 20 25 27 29 28 24 25 23 21 17 15 14 14 16 13 10 9 10 17 9 8 2 3 8 7 4 5 1 4 3 4 4 6
7 4 7 3 8 8 8 4 10 9 10 13 8 13 16 14 12 23 24 30 29 28 28 26 21 19 16 15 14 15 12 12 12 10 10 8 10 7 5 7 6 4 3 5 13 7 10 6 5
4 5 5 6 8 7 8 8 14 14 15 12 8 8 17 16 16 26 28 29 29 25 30 26 21 21 18 16 12 16 13 13 13 8 7 13 11 11 8 4 5 8 9 8 3 4 6 7 6
5 6 9 4 3 6 3 9 8 3 7 9 8 4 14 18 17 27 28 28 30 28 29 26 27 25 22 21 17 15 14 15 10 5 11 15 13 8 9 6 4 9 13 11 5 5 6 6 11
4 9 2 4 9 5 3 3 5 11 2 7 13 11 14 13 17 20 28 28 30 33 32 30 28 27 25 21 21 16 14 15 10 7 18 14 9 6 11 8 5 2 3 3 5 3 5 6 7
7 8 5 4 4 1 5 4 4 3 6 12 16 15 14 17 18 14 22 28 30 32 34 32 29 32 26 20 19 17 15 15 7 10 9 13 9 8 10 8 6 6 6 6 8 5 6 4 1
9 4 6 7 3 4 6 5 3 9 14 18 14 20 14 19 17 14 18 25 29 31 36 34 32 33 27 23 21 19 17 13 11 10 8 10 11 10 8 11 8 4 4 7 6 7 1 1 6
9 6 7 10 9 12 6 2 2 4 6 16 21 17 12 19 21 18 17 30 31 32 32 37 35 33 29 24 23 20 20 15 14 13 13 9 11 12 8 11 8 6 5 3 4 6 5 1 7
8 3 5 9 4 2 6 3 4 6 7 7 9 7 11 15 20 19 25 33 31 30 31 35 35 34 31 27 24 18 22 19 9 17 13 10 12 9 13 10 10 7 7 8 5 6 6 3 6
5 3 3 3 4 6 5 3 7 3 11 14 14 13 14 10 18 17 17 21 33 32 31 32 34 30 31 30 25 20 20 18 15 10 15 11 12 13 11 11 13 9 10 9 7 6 7 5 5
5 6 5 6 5 6 7 6 6 10 11 15 17 18 15 9 14 17 15 23 24 33 34 31 32 31 30 30 28 24 22 16 17 13 15 17 15 16 15 15 13 11 10 9 8 9 6 4 5
10 6 9 4 7 4 4 2 9 15 12 12 2 6 12 11 17 16 18 25 23 28 34 33 32 31 32 29 28 23 22 20 17 17 13 16 15 7 12 10 10 11 10 8 9 10 8 6 5
10 7 6 4 4 3 1 2 14 8 11 4 7 6 12 10 14 15 16 24 25 29 31 35 34 33 31 28 29 25 25 23 21 17 14 14 11 10 11 8 7 10 11 8 11 12 11 10 9
3 5 5 3 4 4 2 5 9 11 8 9 3 8 8 9 15 16 14 25 26 31 30 32 32 30 28 26 26 27 26 25 24 24 21 13 14 11 7 8 10 10 10 12 13 14 14 13 12
8 3 3 3 8 3 2 5 5 7 5 7 10 5 9 10 10 13 13 21 23 27 30 32 31 28 26 24 25 25 25 23 23 23 24 22 18 18 19 17 15 13 14 16 17 17 16 15 13
Wind_Direction
282 277 276 270 54 74 91 19 338 303 45 72 70 74 96 123 155 159 148 143 142 141 141 138 136 134 134 138 139 137 135 134 124 120 118 116 116 116 117 115 115 123 131 138 141 154 164 165 177
291 283 224 275 110 77 66 127 259 272 32 107 85 86 82 81 94 110 120 136 143 139 141 140 138 135 132 129 133 139 141 137 133 129 123 120 123 121 121 118 126 131 137 141 140 145 145 155 161
295 287 38 181 186 67 109 341 284 285 303 104 105 70 89 111 121 104 133 143 141 142 143 142 140 136 135 136 138 138 137 137 139 131 125 127 127 122 121 125 127 127 128 128 128 132 134 148 155
259 10 27 26 74 62 135 163 260 270 250 104 111 74 88 133 123 131 144 137 137 148 147 141 136 135 140 140 140 141 142 139 138 137 135 134 130 127 132 128 133 129 134 125 126 129 138 141 145
276 75 337 289 18 129 155 176 230 254 76 101 96 99 93 103 134 139 130 134 137 146 145 140 137 141 143 144 149 147 146 142 143 138 135 137 139 129 132 129 134 136 137 131 132 143 138 142 141
260 116 22 9 312 94 183 141 252 75 32 69 93 110 112 134 136 143 140 135 149 145 147 144 142 146 145 151 154 148 148 139 134 145 142 139 135 145 138 142 146 144 143 142 144 140 141 148 154
211 41 29 352 319 4 312 20 95 90 127 89 350 118 121 135 146 154 150 150 145 148 151 147 147 151 152 161 157 153 148 147 148 150 145 149 143 147 152 154 151 147 154 148 149 137 139 147 148
157 91 58 31 310 314 332 21 98 106 95 329 154 167 146 136 130 146 146 148 139 149 153 152 154 156 160 163 160 162 160 159 153 149 149 159 156 162 160 154 158 159 168 166 159 147 146 162 130
133 60 145 182 236 284 331 49 26 68 111 32 301 133 137 131 130 129 137 138 143 151 153 162 159 157 162 169 165 167 171 168 163 160 170 167 169 179 158 161 174 177 191 188 193 177 169 181 185
104 143 206 201 182 247 168 78 137 142 50 19 9 121 142 143 152 154 142 144 151 151 164 164 164 161 171 174 174 175 177 183 184 189 187 185 185 228 208 202 205 215 208 214 212 204 167 239 215
160 158 193 184 89 339 162 116 85 109 94 199 145 185 162 156 162 162 145 150 154 150 165 160 164 183 172 178 172 170 174 167 192 197 196 205 285 260 203 199 206 218 228 230 218 174 122 280 338
103 235 190 103 101 309 92 141 108 140 185 161 164 186 232 168 167 153 164 154 150 156 164 163 188 168 174 175 169 174 180 194 199 221 215 245 331 176 184 228 262 227 230 265 221 274 20 44 38
153 218 325 153 137 171 155 99 140 123 187 182 169 200 247 143 145 145 150 156 156 155 161 154 161 169 176 170 178 182 183 200 211 213 195 66 5 6 209 217 349 274 236 242 218 252 10 84 290
37 338 296 137 153 154 160 136 164 183 195 239 231 236 218 159 160 156 153 147 157 160 173 168 166 181 178 181 183 187 193 200 221 231 176 167 343 160 58 53 269 290 255 248 220 354 41 28 236
261 293 341 82 282 148 119 97 189 162 186 225 266 250 161 151 145 156 160 161 173 173 166 169 173 179 184 185 189 195 194 198 230 230 208 185 137 34 343 300 277 245 303 17 200 118 201 238 244
284 260 12 256 266 186 120 234 152 174 210 231 258 196 155 154 164 164 174 175 181 165 172 167 174 181 186 183 189 193 203 223 214 192 198 215 165 254 260 296 268 176 50 351 271 273 249 329 226
300 175 223 177 227 183 161 183 196 195 211 254 240 149 158 165 170 170 171 174 178 179 179 173 176 176 178 175 183 191 217 213 210 201 222 196 170 209 251 332 314 241 336 301 300 296 267 342 308
212 270 229 192 211 197 203 198 190 198 202 226 245 174 169 177 170 170 171 178 183 185 179 178 179 179 176 176 182 193 220 234 212 231 294 192 176 219 235 283 298 276 269 248 274 278 252 316 338
231 293 269 27 359 186 323 38 227 358 314 248 230 212 166 168 183 175 177 172 177 176 175 178 175 178 175 177 181 201 224 205 228 269 195 185 190 214 240 249 287 287 262 251 286 309 338 347 347
328 283 184 285 249 173 122 45 164 125 33 315 324 264 190 176 163 173 176 172 172 177 179 175 179 177 180 183 191 202 212 212 236 254 180 187 198 197 223 234 227 294 358 290 241 292 343 346 41
261 246 206 218 200 196 265 117 128 141 134 266 291 300 244 182 168 165 171 159 167 169 180 178 180 178 181 189 189 200 226 231 241 185 178 190 191 219 236 246 236 283 297 353 337 339 310 301 223
281 332 341 280 55 313 333 285 164 167 195 214 210 244 258 170 172 169 164 167 166 174 184 183 181 182 187 194 201 205 207 220 227 220 213 210 223 219 252 223 234 264 278 289 319 337 267 336 25
253 3 353 75 55 16 323 62 245 173 198 209 221 224 220 182 173 174 171 171 174 172 179 185 185 187 189 194 204 212 205 216 226 229 216 227 223 236 225 229 232 245 261 282 325 292 300 231 156
256 27 31 56 57 343 218 148 270 181 210 244 248 213 210 195 174 177 176 172 172 173 178 182 184 189 193 196 201 209 203 210 231 222 220 222 235 234 237 239 246 247 249 249 275 289 286 260 224
216 250 10 24 326 214 128 329 218 184 234 219 230 226 228 204 171 168 158 154 172 174 178 179 182 188 193 195 197 204 206 219 222 232 212 217 231 246 251 261 246 242 252 264 262 259 288 257 268
243 191 163 201 229 254 134 212 254 223 241 218 233 233 208 200 169 169 161 157 160 164 177 176 180 187 192 196 198 207 211 213 224 234 216 227 238 249 253 253 241 242 250 264 258 248 278 279 280
268 295 238 218 261 123 178 67 319 95 114 258 219 104 142 141 156 155 146 154 157 153 171 173 180 189 192 197 198 206 210 208 211 224 229 238 237 261 227 222 242 227 245 246 263 255 256 279 276
187 236 358 338 313 328 252 164 199 194 205 347 119 103 122 142 146 145 147 160 164 166 160 174 180 187 194 198 199 203 209 214 214 221 234 247 252 238 230 239 256 248 246 239 244 247 257 264 272
270 262 270 198 178 214 229 245 189 189 222 145 291 147 140 136 138 149 155 162 162 161 162 170 179 183 189 193 201 208 215 220 226 229 234 232 240 229 222 223 229 244 258 258 253 257 269 266 265
205 237 295 54 311 303 243 266 155 112 14 26 326 166 148 136 145 153 154 158 157 164 166 171 175 183 192 197 203 209 215 214 219 228 235 235 240 248 249 251 248 246 249 256 257 260 261 265 266